Year,Month,Day,Hour,Minute,Value (Times are PST for windspeed in km/hr)
2012,02,28,00,00,0.10
2012,02,28,00,01,0.00
2012,02,28,00,02,0.20
2012,02,28,00,03,0.00
2012,02,28,00,04,0.20
2012,02,28,00,05,0.00
2012,02,28,00,06,0.00
2012,02,28,00,07,0.00
2012,02,28,00,08,0.00
2012,02,28,00,09,0.00
2012,02,28,00,10,0.00
2012,02,28,00,11,0.00
2012,02,28,00,12,0.00
2012,02,28,00,13,0.00
2012,02,28,00,14,0.00
2012,02,28,00,15,0.00
2012,02,28,00,16,0.00
2012,02,28,00,17,0.00
2012,02,28,00,18,0.00
2012,02,28,00,19,0.00
2012,02,28,00,20,0.00
2012,02,28,00,21,0.00
2012,02,28,00,22,0.00
2012,02,28,00,23,0.00
2012,02,28,00,24,0.00
2012,02,28,00,25,0.00
2012,02,28,00,26,0.00
2012,02,28,00,27,0.00
2012,02,28,00,28,0.00
2012,02,28,00,29,0.00
2012,02,28,00,30,0.10
2012,02,28,00,31,0.10
2012,02,28,00,32,0.60
2012,02,28,00,33,1.90
2012,02,28,00,34,0.60
2012,02,28,00,35,1.90
2012,02,28,00,36,0.10
2012,02,28,00,37,0.00
2012,02,28,00,38,0.20
2012,02,28,00,39,0.10
2012,02,28,00,40,0.00
2012,02,28,00,41,0.00
2012,02,28,00,42,0.00
2012,02,28,00,43,0.00
2012,02,28,00,44,0.10
2012,02,28,00,45,0.00
2012,02,28,00,46,0.00
2012,02,28,00,47,0.10
2012,02,28,00,48,0.10
2012,02,28,00,49,0.00
2012,02,28,00,50,0.00
2012,02,28,00,51,0.10
2012,02,28,00,52,0.00
2012,02,28,00,53,0.00
2012,02,28,00,54,0.10
2012,02,28,00,55,0.00
2012,02,28,00,56,0.00
2012,02,28,00,57,0.00
2012,02,28,00,58,0.00
2012,02,28,00,59,0.00
2012,02,28,01,00,0.00
2012,02,28,01,01,0.10
2012,02,28,01,02,0.00
2012,02,28,01,03,0.00
2012,02,28,01,04,0.00
2012,02,28,01,05,0.00
2012,02,28,01,06,0.10
2012,02,28,01,07,0.00
2012,02,28,01,08,0.00
2012,02,28,01,09,0.10
2012,02,28,01,10,0.00
2012,02,28,01,11,0.00
2012,02,28,01,12,0.10
2012,02,28,01,13,0.70
2012,02,28,01,14,0.10
2012,02,28,01,15,0.00
2012,02,28,01,16,0.20
2012,02,28,01,17,0.00
2012,02,28,01,18,0.00
2012,02,28,01,19,0.10
2012,02,28,01,20,0.10
2012,02,28,01,21,0.10
2012,02,28,01,22,0.00
2012,02,28,01,23,0.00
2012,02,28,01,24,0.00
2012,02,28,01,25,0.20
2012,02,28,01,26,0.00
2012,02,28,01,27,0.00
2012,02,28,01,28,0.00
2012,02,28,01,29,0.00
2012,02,28,01,30,0.00
2012,02,28,01,31,0.00
2012,02,28,01,32,0.00
2012,02,28,01,33,0.00
2012,02,28,01,34,0.00
2012,02,28,01,35,0.00
2012,02,28,01,36,0.00
2012,02,28,01,37,0.00
2012,02,28,01,38,0.10
2012,02,28,01,39,0.00
2012,02,28,01,40,0.10
2012,02,28,01,41,0.00
2012,02,28,01,42,0.40
2012,02,28,01,43,0.20
2012,02,28,01,44,1.60
2012,02,28,01,45,0.80
2012,02,28,01,46,0.70
2012,02,28,01,47,0.90
2012,02,28,01,48,1.00
2012,02,28,01,49,0.50
2012,02,28,01,50,0.10
2012,02,28,01,51,0.00
2012,02,28,01,52,0.10
2012,02,28,01,53,0.00
2012,02,28,01,54,0.00
2012,02,28,01,55,0.10
2012,02,28,01,56,0.20
2012,02,28,01,57,0.80
2012,02,28,01,58,0.80
2012,02,28,01,59,2.20
2012,02,28,02,00,2.40
2012,02,28,02,01,0.10
2012,02,28,02,02,0.10
2012,02,28,02,03,0.00
2012,02,28,02,04,0.00
2012,02,28,02,05,0.00
2012,02,28,02,06,0.10
2012,02,28,02,07,0.00
2012,02,28,02,08,0.00
2012,02,28,02,09,0.00
2012,02,28,02,10,0.00
2012,02,28,02,11,0.00
2012,02,28,02,12,0.10
2012,02,28,02,13,0.00
2012,02,28,02,14,0.00
2012,02,28,02,15,0.10
2012,02,28,02,16,1.40
2012,02,28,02,17,0.00
2012,02,28,02,18,0.00
2012,02,28,02,19,0.00
2012,02,28,02,20,0.00
2012,02,28,02,21,0.00
2012,02,28,02,22,0.00
2012,02,28,02,23,0.00
2012,02,28,02,24,0.00
2012,02,28,02,25,0.00
2012,02,28,02,26,0.00
2012,02,28,02,27,0.00
2012,02,28,02,28,0.00
2012,02,28,02,29,0.50
2012,02,28,02,30,0.00
2012,02,28,02,31,0.10
2012,02,28,02,32,0.00
2012,02,28,02,33,1.60
2012,02,28,02,34,0.10
2012,02,28,02,35,2.40
2012,02,28,02,36,2.00
2012,02,28,02,37,0.60
2012,02,28,02,38,2.40
2012,02,28,02,39,1.80
2012,02,28,02,40,0.00
2012,02,28,02,41,0.00
2012,02,28,02,42,0.20
2012,02,28,02,43,0.40
2012,02,28,02,44,2.00
2012,02,28,02,45,1.50
2012,02,28,02,46,0.40
2012,02,28,02,47,2.70
2012,02,28,02,48,0.20
2012,02,28,02,49,0.30
2012,02,28,02,50,1.10
2012,02,28,02,51,0.00
2012,02,28,02,52,0.10
2012,02,28,02,53,0.00
2012,02,28,02,54,0.00
2012,02,28,02,55,0.00
2012,02,28,02,56,0.00
2012,02,28,02,57,0.10
2012,02,28,02,58,0.00
2012,02,28,02,59,0.10
2012,02,28,03,00,0.00
2012,02,28,03,01,0.10
2012,02,28,03,02,0.10
2012,02,28,03,03,0.10
2012,02,28,03,04,1.70
2012,02,28,03,05,1.10
2012,02,28,03,06,1.40
2012,02,28,03,07,0.00
2012,02,28,03,08,0.20
2012,02,28,03,09,0.10
2012,02,28,03,10,0.00
2012,02,28,03,11,0.00
2012,02,28,03,12,0.10
2012,02,28,03,13,0.00
2012,02,28,03,14,0.10
2012,02,28,03,15,0.10
2012,02,28,03,16,0.10
2012,02,28,03,17,2.40
2012,02,28,03,18,1.90
2012,02,28,03,19,1.90
2012,02,28,03,20,1.90
2012,02,28,03,21,0.50
2012,02,28,03,22,0.10
2012,02,28,03,23,1.00
2012,02,28,03,24,1.70
2012,02,28,03,25,0.50
2012,02,28,03,26,0.90
2012,02,28,03,27,0.10
2012,02,28,03,28,2.30
2012,02,28,03,29,2.50
2012,02,28,03,30,1.00
2012,02,28,03,31,0.10
2012,02,28,03,32,2.50
2012,02,28,03,33,3.40
2012,02,28,03,34,0.40
2012,02,28,03,35,1.10
2012,02,28,03,36,1.30
2012,02,28,03,37,1.00
2012,02,28,03,38,1.50
2012,02,28,03,39,0.80
2012,02,28,03,40,0.30
2012,02,28,03,41,0.00
2012,02,28,03,42,0.10
2012,02,28,03,43,0.10
2012,02,28,03,44,1.00
2012,02,28,03,45,1.40
2012,02,28,03,46,0.20
2012,02,28,03,47,0.10
2012,02,28,03,48,0.10
2012,02,28,03,49,1.30
2012,02,28,03,50,0.50
2012,02,28,03,51,0.50
2012,02,28,03,52,0.10
2012,02,28,03,53,0.90
2012,02,28,03,54,0.80
2012,02,28,03,55,0.10
2012,02,28,03,56,1.50
2012,02,28,03,57,2.40
2012,02,28,03,58,2.20
2012,02,28,03,59,1.90
2012,02,28,04,00,0.10
2012,02,28,04,01,0.10
2012,02,28,04,02,1.30
2012,02,28,04,03,0.00
2012,02,28,04,04,0.00
2012,02,28,04,05,0.20
2012,02,28,04,06,1.10
2012,02,28,04,07,1.00
2012,02,28,04,08,0.70
2012,02,28,04,09,1.50
2012,02,28,04,10,1.00
2012,02,28,04,11,3.20
2012,02,28,04,12,0.60
2012,02,28,04,13,4.50
2012,02,28,04,14,1.10
2012,02,28,04,15,0.20
2012,02,28,04,16,2.90
2012,02,28,04,17,0.20
2012,02,28,04,18,3.10
2012,02,28,04,19,0.30
2012,02,28,04,20,4.10
2012,02,28,04,21,1.90
2012,02,28,04,22,5.10
2012,02,28,04,23,0.90
2012,02,28,04,24,4.00
2012,02,28,04,25,3.80
2012,02,28,04,26,5.00
2012,02,28,04,27,4.60
2012,02,28,04,28,4.40
2012,02,28,04,29,3.90
2012,02,28,04,30,3.20
2012,02,28,04,31,2.60
2012,02,28,04,32,6.00
2012,02,28,04,33,2.50
2012,02,28,04,34,4.00
2012,02,28,04,35,3.10
2012,02,28,04,36,5.10
2012,02,28,04,37,6.10
2012,02,28,04,38,2.60
2012,02,28,04,39,4.80
2012,02,28,04,40,3.50
2012,02,28,04,41,3.10
2012,02,28,04,42,3.80
2012,02,28,04,43,5.80
2012,02,28,04,44,4.20
2012,02,28,04,45,6.50
2012,02,28,04,46,2.30
2012,02,28,04,47,0.00
2012,02,28,04,48,0.50
2012,02,28,04,49,3.30
2012,02,28,04,50,5.10
2012,02,28,04,51,7.20
2012,02,28,04,52,4.70
2012,02,28,04,53,4.50
2012,02,28,04,54,1.70
2012,02,28,04,55,1.00
2012,02,28,04,56,1.60
2012,02,28,04,57,3.30
2012,02,28,04,58,3.80
2012,02,28,04,59,4.30
2012,02,28,05,00,3.20
2012,02,28,05,01,0.90
2012,02,28,05,02,2.20
2012,02,28,05,03,0.10
2012,02,28,05,04,0.00
2012,02,28,05,05,3.50
2012,02,28,05,06,2.70
2012,02,28,05,07,0.00
2012,02,28,05,08,1.00
2012,02,28,05,09,2.20
2012,02,28,05,10,5.20
2012,02,28,05,11,0.00
2012,02,28,05,12,0.60
2012,02,28,05,13,0.30
2012,02,28,05,14,1.70
2012,02,28,05,15,0.70
2012,02,28,05,16,0.20
2012,02,28,05,17,0.80
2012,02,28,05,18,2.50
2012,02,28,05,19,0.50
2012,02,28,05,20,0.00
2012,02,28,05,21,0.20
2012,02,28,05,22,0.10
2012,02,28,05,23,0.00
2012,02,28,05,24,0.00
2012,02,28,05,25,0.00
2012,02,28,05,26,0.00
2012,02,28,05,27,0.00
2012,02,28,05,28,0.00
2012,02,28,05,29,0.00
2012,02,28,05,30,0.10
2012,02,28,05,31,0.00
2012,02,28,05,32,0.00
2012,02,28,05,33,0.00
2012,02,28,05,34,0.00
2012,02,28,05,35,0.00
2012,02,28,05,36,0.00
2012,02,28,05,37,0.00
2012,02,28,05,38,0.00
2012,02,28,05,39,0.00
2012,02,28,05,40,0.00
2012,02,28,05,41,0.00
2012,02,28,05,42,0.00
2012,02,28,05,43,0.00
2012,02,28,05,44,0.00
2012,02,28,05,45,0.00
2012,02,28,05,46,0.00
2012,02,28,05,47,0.00
2012,02,28,05,48,0.00
2012,02,28,05,49,0.00
2012,02,28,05,50,0.00
2012,02,28,05,51,0.00
2012,02,28,05,52,0.00
2012,02,28,05,53,0.00
2012,02,28,05,54,0.00
2012,02,28,05,55,0.00
2012,02,28,05,56,0.00
2012,02,28,05,57,0.00
2012,02,28,05,58,0.00
2012,02,28,05,59,0.00
2012,02,28,06,00,0.00
2012,02,28,06,01,0.00
2012,02,28,06,02,0.00
2012,02,28,06,03,0.00
2012,02,28,06,04,0.00
2012,02,28,06,05,0.00
2012,02,28,06,06,0.00
2012,02,28,06,07,0.00
2012,02,28,06,08,0.00
2012,02,28,06,09,0.00
2012,02,28,06,10,0.10
2012,02,28,06,11,0.00
2012,02,28,06,12,0.00
2012,02,28,06,13,0.10
2012,02,28,06,14,0.00
2012,02,28,06,15,0.00
2012,02,28,06,16,0.00
2012,02,28,06,17,0.00
2012,02,28,06,18,0.00
2012,02,28,06,19,0.00
2012,02,28,06,20,0.00
2012,02,28,06,21,0.00
2012,02,28,06,22,2.70
2012,02,28,06,23,1.90
2012,02,28,06,24,0.00
2012,02,28,06,25,1.00
2012,02,28,06,26,1.30
2012,02,28,06,27,0.10
2012,02,28,06,28,1.10
2012,02,28,06,29,1.00
2012,02,28,06,30,0.00
2012,02,28,06,31,0.20
2012,02,28,06,32,0.00
2012,02,28,06,33,1.10
2012,02,28,06,34,0.00
2012,02,28,06,35,0.00
2012,02,28,06,36,0.00
2012,02,28,06,37,0.20
2012,02,28,06,38,0.00
2012,02,28,06,39,0.00
2012,02,28,06,40,0.00
2012,02,28,06,41,0.00
2012,02,28,06,42,0.00
2012,02,28,06,43,0.00
2012,02,28,06,44,0.00
2012,02,28,06,45,0.10
2012,02,28,06,46,0.00
2012,02,28,06,47,0.00
2012,02,28,06,48,0.00
2012,02,28,06,49,0.00
2012,02,28,06,50,0.00
2012,02,28,06,51,0.00
2012,02,28,06,52,0.10
2012,02,28,06,53,0.00
2012,02,28,06,54,0.10
2012,02,28,06,55,0.20
2012,02,28,06,56,0.10
2012,02,28,06,57,0.10
2012,02,28,06,58,0.10
2012,02,28,06,59,0.40
2012,02,28,07,00,2.90
2012,02,28,07,01,0.20
2012,02,28,07,02,0.00
2012,02,28,07,03,2.10
2012,02,28,07,04,0.70
2012,02,28,07,05,0.00
2012,02,28,07,06,0.00
2012,02,28,07,07,0.00
2012,02,28,07,08,0.00
2012,02,28,07,09,0.00
2012,02,28,07,10,0.00
2012,02,28,07,11,0.00
2012,02,28,07,12,0.00
2012,02,28,07,13,0.00
2012,02,28,07,14,0.00
2012,02,28,07,15,0.10
2012,02,28,07,16,0.10
2012,02,28,07,17,0.00
2012,02,28,07,18,0.00
2012,02,28,07,19,0.00
2012,02,28,07,20,0.10
2012,02,28,07,21,0.00
2012,02,28,07,22,0.20
2012,02,28,07,23,1.80
2012,02,28,07,24,0.50
2012,02,28,07,25,0.10
2012,02,28,07,26,1.10
2012,02,28,07,27,0.70
2012,02,28,07,28,1.40
2012,02,28,07,29,0.80
2012,02,28,07,30,0.00
2012,02,28,07,31,0.10
2012,02,28,07,32,1.20
2012,02,28,07,33,0.10
2012,02,28,07,34,2.90
2012,02,28,07,35,1.00
2012,02,28,07,36,0.40
2012,02,28,07,37,0.60
2012,02,28,07,38,0.60
2012,02,28,07,39,1.00
2012,02,28,07,40,0.00
2012,02,28,07,41,0.00
2012,02,28,07,42,0.00
2012,02,28,07,43,0.10
2012,02,28,07,44,0.00
2012,02,28,07,45,0.00
2012,02,28,07,46,0.00
2012,02,28,07,47,0.00
2012,02,28,07,48,0.20
2012,02,28,07,49,0.00
2012,02,28,07,50,0.00
2012,02,28,07,51,0.00
2012,02,28,07,52,0.00
2012,02,28,07,53,0.00
2012,02,28,07,54,0.10
2012,02,28,07,55,0.00
2012,02,28,07,56,0.00
2012,02,28,07,57,0.60
2012,02,28,07,58,0.10
2012,02,28,07,59,0.10
2012,02,28,08,00,0.10
2012,02,28,08,01,0.00
2012,02,28,08,02,0.10
2012,02,28,08,03,0.00
2012,02,28,08,04,1.00
2012,02,28,08,05,1.40
2012,02,28,08,06,0.00
2012,02,28,08,07,0.00
2012,02,28,08,08,0.00
2012,02,28,08,09,0.00
2012,02,28,08,10,0.00
2012,02,28,08,11,0.00
2012,02,28,08,12,0.00
2012,02,28,08,13,0.00
2012,02,28,08,14,0.00
2012,02,28,08,15,0.00
2012,02,28,08,16,0.90
2012,02,28,08,17,1.50
2012,02,28,08,18,0.00
2012,02,28,08,19,0.00
2012,02,28,08,20,0.00
2012,02,28,08,21,0.00
2012,02,28,08,22,2.20
2012,02,28,08,23,5.70
2012,02,28,08,24,6.80
2012,02,28,08,25,2.10
2012,02,28,08,26,6.80
2012,02,28,08,27,9.00
2012,02,28,08,28,7.10
2012,02,28,08,29,6.10
2012,02,28,08,30,9.30
2012,02,28,08,31,8.50
2012,02,28,08,32,10.00
2012,02,28,08,33,8.00
2012,02,28,08,34,5.30
2012,02,28,08,35,7.90
2012,02,28,08,36,8.40
2012,02,28,08,37,8.70
2012,02,28,08,38,8.50
2012,02,28,08,39,8.40
2012,02,28,08,40,11.50
2012,02,28,08,41,5.60
2012,02,28,08,42,4.60
2012,02,28,08,43,7.40
2012,02,28,08,44,7.40
2012,02,28,08,45,6.80
2012,02,28,08,46,12.30
2012,02,28,08,47,15.10
2012,02,28,08,48,10.50
2012,02,28,08,49,9.90
2012,02,28,08,50,13.20
2012,02,28,08,51,15.50
2012,02,28,08,52,13.90
2012,02,28,08,53,9.00
2012,02,28,08,54,10.60
2012,02,28,08,55,14.40
2012,02,28,08,56,10.40
2012,02,28,08,57,7.50
2012,02,28,08,58,5.80
2012,02,28,08,59,4.10
2012,02,28,09,00,7.60
2012,02,28,09,01,4.50
2012,02,28,09,02,5.70
2012,02,28,09,03,9.80
2012,02,28,09,04,3.70
2012,02,28,09,05,9.40
2012,02,28,09,06,5.30
2012,02,28,09,07,4.70
2012,02,28,09,08,3.90
2012,02,28,09,09,7.10
2012,02,28,09,10,7.40
2012,02,28,09,11,12.00
2012,02,28,09,12,11.00
2012,02,28,09,13,7.20
2012,02,28,09,14,8.70
2012,02,28,09,15,13.00
2012,02,28,09,16,13.50
2012,02,28,09,17,9.50
2012,02,28,09,18,13.70
2012,02,28,09,19,8.00
2012,02,28,09,20,7.60
2012,02,28,09,21,17.90
2012,02,28,09,22,14.10
2012,02,28,09,23,10.50
2012,02,28,09,24,15.30
2012,02,28,09,25,16.10
2012,02,28,09,26,11.40
2012,02,28,09,27,14.00
2012,02,28,09,28,9.90
2012,02,28,09,29,9.00
2012,02,28,09,30,11.40
2012,02,28,09,31,9.60
2012,02,28,09,32,9.50
2012,02,28,09,33,10.80
2012,02,28,09,34,13.60
2012,02,28,09,35,12.30
2012,02,28,09,36,12.70
2012,02,28,09,37,8.30
2012,02,28,09,38,6.40
2012,02,28,09,39,14.10
2012,02,28,09,40,9.60
2012,02,28,09,41,10.10
2012,02,28,09,42,13.90
2012,02,28,09,43,11.30
2012,02,28,09,44,10.60
2012,02,28,09,45,9.60
2012,02,28,09,46,12.30
2012,02,28,09,47,9.40
2012,02,28,09,48,10.70
2012,02,28,09,49,7.90
2012,02,28,09,50,10.70
2012,02,28,09,51,11.70
2012,02,28,09,52,6.00
2012,02,28,09,53,12.30
2012,02,28,09,54,12.80
2012,02,28,09,55,15.50
2012,02,28,09,56,9.70
2012,02,28,09,57,8.90
2012,02,28,09,58,10.10
2012,02,28,09,59,9.30
2012,02,28,10,00,15.00
2012,02,28,10,01,17.50
2012,02,28,10,02,11.70
2012,02,28,10,03,11.90
2012,02,28,10,04,12.60
2012,02,28,10,05,13.20
2012,02,28,10,06,9.90
2012,02,28,10,07,14.20
2012,02,28,10,08,8.50
2012,02,28,10,09,10.70
2012,02,28,10,10,18.10
2012,02,28,10,11,14.60
2012,02,28,10,12,13.30
2012,02,28,10,13,13.00
2012,02,28,10,14,15.00
2012,02,28,10,15,17.70
2012,02,28,10,16,18.30
2012,02,28,10,17,12.50
2012,02,28,10,18,13.40
2012,02,28,10,19,12.30
2012,02,28,10,20,15.80
2012,02,28,10,21,8.30
2012,02,28,10,22,4.90
2012,02,28,10,23,8.40
2012,02,28,10,24,14.20
2012,02,28,10,25,13.60
2012,02,28,10,26,10.10
2012,02,28,10,27,14.00
2012,02,28,10,28,10.10
2012,02,28,10,29,10.20
2012,02,28,10,30,10.10
2012,02,28,10,31,16.50
2012,02,28,10,32,11.20
2012,02,28,10,33,14.40
2012,02,28,10,34,17.10
2012,02,28,10,35,12.20
2012,02,28,10,36,14.30
2012,02,28,10,37,12.90
2012,02,28,10,38,19.60
2012,02,28,10,39,16.90
2012,02,28,10,40,11.30
2012,02,28,10,41,17.50
2012,02,28,10,42,18.90
2012,02,28,10,43,13.30
2012,02,28,10,44,17.40
2012,02,28,10,45,20.40
2012,02,28,10,46,15.70
2012,02,28,10,47,15.40
2012,02,28,10,48,11.20
2012,02,28,10,49,16.40
2012,02,28,10,50,18.10
2012,02,28,10,51,12.00
2012,02,28,10,52,17.20
2012,02,28,10,53,15.80
2012,02,28,10,54,17.40
2012,02,28,10,55,16.70
2012,02,28,10,56,22.00
2012,02,28,10,57,21.50
2012,02,28,10,58,21.20
2012,02,28,10,59,16.90
2012,02,28,11,00,22.30
2012,02,28,11,01,23.50
2012,02,28,11,02,18.00
2012,02,28,11,03,20.70
2012,02,28,11,04,25.20
2012,02,28,11,05,15.40
2012,02,28,11,06,14.00
2012,02,28,11,07,16.30
2012,02,28,11,08,28.80
2012,02,28,11,09,18.90
2012,02,28,11,10,20.20
2012,02,28,11,11,22.10
2012,02,28,11,12,15.10
2012,02,28,11,13,11.00
2012,02,28,11,14,11.80
2012,02,28,11,15,14.70
2012,02,28,11,16,20.10
2012,02,28,11,17,14.20
2012,02,28,11,18,14.60
2012,02,28,11,19,17.70
2012,02,28,11,20,28.00
2012,02,28,11,21,17.20
2012,02,28,11,22,19.10
2012,02,28,11,23,18.70
2012,02,28,11,24,15.90
2012,02,28,11,25,17.60
2012,02,28,11,26,16.60
2012,02,28,11,27,11.40
2012,02,28,11,28,14.80
2012,02,28,11,29,17.20
2012,02,28,11,30,18.60
2012,02,28,11,31,24.60
2012,02,28,11,32,19.20
2012,02,28,11,33,14.60
2012,02,28,11,34,17.00
2012,02,28,11,35,21.20
2012,02,28,11,36,17.70
2012,02,28,11,37,18.40
2012,02,28,11,38,21.40
2012,02,28,11,39,22.10
2012,02,28,11,40,23.00
2012,02,28,11,41,20.00
2012,02,28,11,42,18.00
2012,02,28,11,43,23.40
2012,02,28,11,44,15.80
2012,02,28,11,45,16.20
2012,02,28,11,46,18.80
2012,02,28,11,47,10.50
2012,02,28,11,48,7.40
2012,02,28,11,49,9.70
2012,02,28,11,50,11.00
2012,02,28,11,51,20.90
2012,02,28,11,52,27.40
2012,02,28,11,53,16.90
2012,02,28,11,54,18.20
2012,02,28,11,55,27.50
2012,02,28,11,56,23.60
2012,02,28,11,57,18.80
2012,02,28,11,58,24.10
2012,02,28,11,59,19.80
2012,02,28,12,00,12.70
2012,02,28,12,01,18.90
2012,02,28,12,02,19.30
2012,02,28,12,03,22.10
2012,02,28,12,04,22.20
2012,02,28,12,05,14.50
2012,02,28,12,06,17.70
2012,02,28,12,07,21.30
2012,02,28,12,08,10.30
2012,02,28,12,09,17.00
2012,02,28,12,10,22.50
2012,02,28,12,11,17.10
2012,02,28,12,12,14.60
2012,02,28,12,13,10.20
2012,02,28,12,14,21.70
2012,02,28,12,15,22.90
2012,02,28,12,16,23.00
2012,02,28,12,17,17.90
2012,02,28,12,18,16.90
2012,02,28,12,19,18.60
2012,02,28,12,20,19.70
2012,02,28,12,21,22.00
2012,02,28,12,22,18.20
2012,02,28,12,23,16.90
2012,02,28,12,24,20.10
2012,02,28,12,25,18.40
2012,02,28,12,26,19.20
2012,02,28,12,27,22.70
2012,02,28,12,28,21.10
2012,02,28,12,29,13.10
2012,02,28,12,30,19.20
2012,02,28,12,31,15.00
2012,02,28,12,32,14.40
2012,02,28,12,33,27.00
2012,02,28,12,34,22.30
2012,02,28,12,35,19.40
2012,02,28,12,36,16.10
2012,02,28,12,37,19.50
2012,02,28,12,38,20.00
2012,02,28,12,39,16.60
2012,02,28,12,40,12.20
2012,02,28,12,41,25.40
2012,02,28,12,42,21.00
2012,02,28,12,43,21.90
2012,02,28,12,44,22.40
2012,02,28,12,45,18.80
2012,02,28,12,46,15.90
2012,02,28,12,47,18.70
2012,02,28,12,48,20.90
2012,02,28,12,49,24.00
2012,02,28,12,50,18.70
2012,02,28,12,51,26.20
2012,02,28,12,52,22.20
2012,02,28,12,53,21.60
2012,02,28,12,54,25.10
2012,02,28,12,55,24.20
2012,02,28,12,56,13.40
2012,02,28,12,57,16.60
2012,02,28,12,58,18.50
2012,02,28,12,59,21.60
2012,02,28,13,00,23.00
2012,02,28,13,01,23.30
2012,02,28,13,02,18.80
2012,02,28,13,03,24.10
2012,02,28,13,04,18.00
2012,02,28,13,05,20.70
2012,02,28,13,06,22.70
2012,02,28,13,07,26.30
2012,02,28,13,08,16.00
2012,02,28,13,09,17.40
2012,02,28,13,10,24.00
2012,02,28,13,11,19.10
2012,02,28,13,12,21.90
2012,02,28,13,13,19.00
2012,02,28,13,14,22.40
2012,02,28,13,15,25.30
2012,02,28,13,16,23.60
2012,02,28,13,17,23.40
2012,02,28,13,18,30.60
2012,02,28,13,19,25.40
2012,02,28,13,20,20.40
2012,02,28,13,21,19.90
2012,02,28,13,22,18.20
2012,02,28,13,23,24.00
2012,02,28,13,24,26.60
2012,02,28,13,25,25.20
2012,02,28,13,26,22.50
2012,02,28,13,27,13.60
2012,02,28,13,28,22.90
2012,02,28,13,29,17.90
2012,02,28,13,30,25.40
2012,02,28,13,31,18.80
2012,02,28,13,32,25.60
2012,02,28,13,33,27.80
2012,02,28,13,34,26.20
2012,02,28,13,35,21.90
2012,02,28,13,36,30.40
2012,02,28,13,37,21.70
2012,02,28,13,38,25.90
2012,02,28,13,39,20.80
2012,02,28,13,40,23.30
2012,02,28,13,41,29.40
2012,02,28,13,42,19.50
2012,02,28,13,43,14.60
2012,02,28,13,44,26.60
2012,02,28,13,45,23.60
2012,02,28,13,46,14.00
2012,02,28,13,47,17.50
2012,02,28,13,48,25.60
2012,02,28,13,49,19.90
2012,02,28,13,50,24.90
2012,02,28,13,51,19.20
2012,02,28,13,52,20.40
2012,02,28,13,53,20.40
2012,02,28,13,54,25.60
2012,02,28,13,55,20.70
2012,02,28,13,56,22.60
2012,02,28,13,57,24.50
2012,02,28,13,58,20.80
2012,02,28,13,59,21.20
2012,02,28,14,00,21.20
2012,02,28,14,01,22.00
2012,02,28,14,02,25.50
2012,02,28,14,03,24.90
2012,02,28,14,04,19.50
2012,02,28,14,05,24.00
2012,02,28,14,06,18.60
2012,02,28,14,07,33.10
2012,02,28,14,08,24.30
2012,02,28,14,09,14.60
2012,02,28,14,10,25.30
2012,02,28,14,11,21.00
2012,02,28,14,12,29.50
2012,02,28,14,13,30.40
2012,02,28,14,14,26.70
2012,02,28,14,15,28.10
2012,02,28,14,16,26.60
2012,02,28,14,17,24.00
2012,02,28,14,18,26.70
2012,02,28,14,19,22.10
2012,02,28,14,20,20.30
2012,02,28,14,21,28.50
2012,02,28,14,22,32.70
2012,02,28,14,23,28.20
2012,02,28,14,24,26.10
2012,02,28,14,25,27.70
2012,02,28,14,26,28.70
2012,02,28,14,27,28.10
2012,02,28,14,28,41.10
2012,02,28,14,29,34.00
2012,02,28,14,30,33.00
2012,02,28,14,31,35.50
2012,02,28,14,32,33.40
2012,02,28,14,33,27.00
2012,02,28,14,34,33.30
2012,02,28,14,35,29.70
2012,02,28,14,36,31.50
2012,02,28,14,37,26.20
2012,02,28,14,38,36.10
2012,02,28,14,39,32.60
2012,02,28,14,40,26.30
2012,02,28,14,41,37.40
2012,02,28,14,42,30.60
2012,02,28,14,43,27.70
2012,02,28,14,44,33.50
2012,02,28,14,45,29.90
2012,02,28,14,46,26.60
2012,02,28,14,47,27.70
2012,02,28,14,48,32.90
2012,02,28,14,49,25.60
2012,02,28,14,50,28.20
2012,02,28,14,51,27.80
2012,02,28,14,52,25.70
2012,02,28,14,53,26.70
2012,02,28,14,54,35.20
2012,02,28,14,55,31.00
2012,02,28,14,56,33.60
2012,02,28,14,57,38.90
2012,02,28,14,58,30.70
2012,02,28,14,59,16.90
2012,02,28,15,00,27.80
2012,02,28,15,01,30.20
2012,02,28,15,02,26.50
2012,02,28,15,03,31.80
2012,02,28,15,04,36.50
2012,02,28,15,05,16.40
2012,02,28,15,06,21.50
2012,02,28,15,07,39.10
2012,02,28,15,08,29.50
2012,02,28,15,09,28.70
2012,02,28,15,10,27.40
2012,02,28,15,11,30.10
2012,02,28,15,12,27.80
2012,02,28,15,13,29.50
2012,02,28,15,14,29.20
2012,02,28,15,15,19.10
2012,02,28,15,16,22.40
2012,02,28,15,17,27.00
2012,02,28,15,18,30.10
2012,02,28,15,19,33.60
2012,02,28,15,20,27.60
2012,02,28,15,21,29.20
2012,02,28,15,22,27.80
2012,02,28,15,23,24.20
2012,02,28,15,24,24.40
2012,02,28,15,25,23.60
2012,02,28,15,26,28.60
2012,02,28,15,27,31.70
2012,02,28,15,28,29.80
2012,02,28,15,29,20.20
2012,02,28,15,30,26.30
2012,02,28,15,31,29.10
2012,02,28,15,32,27.80
2012,02,28,15,33,30.40
2012,02,28,15,34,33.70
2012,02,28,15,35,35.80
2012,02,28,15,36,28.60
2012,02,28,15,37,33.20
2012,02,28,15,38,32.20
2012,02,28,15,39,37.70
2012,02,28,15,40,34.80
2012,02,28,15,41,27.40
2012,02,28,15,42,26.00
2012,02,28,15,43,37.20
2012,02,28,15,44,38.00
2012,02,28,15,45,35.60
2012,02,28,15,46,20.90
2012,02,28,15,47,23.80
2012,02,28,15,48,39.60
2012,02,28,15,49,37.50
2012,02,28,15,50,28.90
2012,02,28,15,51,35.00
2012,02,28,15,52,34.10
2012,02,28,15,53,35.50
2012,02,28,15,54,23.30
2012,02,28,15,55,20.90
2012,02,28,15,56,19.60
2012,02,28,15,57,32.30
2012,02,28,15,58,29.40
2012,02,28,15,59,22.40
2012,02,28,16,00,34.00
2012,02,28,16,01,31.60
2012,02,28,16,02,24.90
2012,02,28,16,03,30.80
2012,02,28,16,04,23.70
2012,02,28,16,05,26.20
2012,02,28,16,06,24.10
2012,02,28,16,07,25.40
2012,02,28,16,08,31.20
2012,02,28,16,09,27.40
2012,02,28,16,10,21.30
2012,02,28,16,11,21.50
2012,02,28,16,12,30.70
2012,02,28,16,13,29.50
2012,02,28,16,14,19.70
2012,02,28,16,15,15.00
2012,02,28,16,16,25.60
2012,02,28,16,17,24.30
2012,02,28,16,18,32.50
2012,02,28,16,19,27.40
2012,02,28,16,20,24.60
2012,02,28,16,21,25.70
2012,02,28,16,22,21.60
2012,02,28,16,23,26.80
2012,02,28,16,24,33.70
2012,02,28,16,25,36.10
2012,02,28,16,26,22.20
2012,02,28,16,27,22.50
2012,02,28,16,28,27.40
2012,02,28,16,29,31.20
2012,02,28,16,30,23.30
2012,02,28,16,31,25.10
2012,02,28,16,32,24.30
2012,02,28,16,33,29.00
2012,02,28,16,34,29.00
2012,02,28,16,35,28.20
2012,02,28,16,36,22.70
2012,02,28,16,37,23.10
2012,02,28,16,38,27.60
2012,02,28,16,39,24.60
2012,02,28,16,40,23.10
2012,02,28,16,41,29.30
2012,02,28,16,42,23.40
2012,02,28,16,43,29.20
2012,02,28,16,44,19.30
2012,02,28,16,45,29.90
2012,02,28,16,46,26.40
2012,02,28,16,47,21.40
2012,02,28,16,48,23.10
2012,02,28,16,49,29.40
2012,02,28,16,50,20.80
2012,02,28,16,51,22.50
2012,02,28,16,52,29.40
2012,02,28,16,53,34.00
2012,02,28,16,54,33.20
2012,02,28,16,55,37.50
2012,02,28,16,56,28.20
2012,02,28,16,57,27.50
2012,02,28,16,58,22.60
2012,02,28,16,59,23.40
2012,02,28,17,00,22.00
2012,02,28,17,01,23.30
2012,02,28,17,02,23.20
2012,02,28,17,03,27.80
2012,02,28,17,04,22.20
2012,02,28,17,05,13.80
2012,02,28,17,06,13.80
2012,02,28,17,07,27.90
2012,02,28,17,08,21.80
2012,02,28,17,09,21.30
2012,02,28,17,10,20.90
2012,02,28,17,11,14.40
2012,02,28,17,12,26.70
2012,02,28,17,13,23.60
2012,02,28,17,14,34.60
2012,02,28,17,15,23.00
2012,02,28,17,16,32.60
2012,02,28,17,17,28.60
2012,02,28,17,18,24.50
2012,02,28,17,19,18.80
2012,02,28,17,20,20.00
2012,02,28,17,21,37.50
2012,02,28,17,22,27.60
2012,02,28,17,23,21.40
2012,02,28,17,24,14.50
2012,02,28,17,25,30.10
2012,02,28,17,26,27.30
2012,02,28,17,27,17.20
2012,02,28,17,28,18.80
2012,02,28,17,29,27.70
2012,02,28,17,30,15.10
2012,02,28,17,31,16.30
2012,02,28,17,32,26.90
2012,02,28,17,33,14.20
2012,02,28,17,34,12.50
2012,02,28,17,35,23.60
2012,02,28,17,36,24.90
2012,02,28,17,37,28.30
2012,02,28,17,38,20.00
2012,02,28,17,39,17.00
2012,02,28,17,40,30.60
2012,02,28,17,41,17.10
2012,02,28,17,42,22.00
2012,02,28,17,43,20.40